Location: Observatory
(52.1446°N, 0.4624°W)
Time: 02:05:39
(UTC+01:00)

ISS - Pass Details

Date: 22 May 2018
Orbit: 402 x 406 km, 51.6° (Epoch: 21 June)

Event Time Altitude Azimuth Distance (km) Brightness Sun altitude
Rises 23:29:52 0° 252° (WSW) 2,318 0.1 -14.8°
Reaches altitude 10° 23:31:57 10° 250° (WSW) 1,459 -1.0 -14.9°
Maximum altitude 23:35:12 68° 167° (SSE) 439 -4.0 -15.1°
Drops below altitude 10° 23:38:27 10° 84° (E) 1,460 -1.2 -15.3°
Sets 23:40:32 0° 82° (E) 2,320 -0.1 -15.4°
